Location: Unnamed Road
(35.9029°N, 51.9749°E)
Time: 13:46:59
(UTC+04:30)

SR - All Passes

Search period start: 30 May 2020 00:00
Search period end: 09 June 2020 00:00
Orbit: 581 x 874 km, 66.7° (Epoch: 29 May)

Date Brightness Start Highest point End Pass type
(mag) Time Alt. Az. Time Alt. Az. Time Alt. Az.
30 May - 01:01:39 10° N 01:05:34 33° ENE 01:09:23 10° ESE visible
30 May - 02:44:25 10° WNW 02:47:15 18° WSW 02:50:04 10° SSW visible
30 May - 15:27:43 10° S 15:33:01 50° ESE 15:37:57 10° NE daylight
30 May - 17:11:18 10° W 17:15:16 21° NW 17:19:01 10° N daylight
31 May - 00:12:58 10° NNE 00:15:35 16° NE 00:18:10 10° E visible
31 May - 01:53:47 10° NW 01:57:49 43° WSW 02:01:49 10° S visible
31 May - 14:39:14 10° SSE 14:43:30 24° ESE 14:47:34 10° ENE daylight
31 May - 16:20:16 10° SW 16:25:21 40° WNW 16:30:05 10° NNE daylight
01 Jun - 01:03:57 10° NNW 01:08:14 74° ENE 01:12:27 10° SSE visible
01 Jun - 13:53:15 10° ESE 13:54:07 10° ESE 13:54:58 10° E daylight
01 Jun - 15:30:08 10° SSW 15:35:37 84° WNW 15:40:41 10° NNE daylight
01 Jun - 17:16:43 10° WNW 17:18:16 11° NW 17:19:48 10° NNW daylight
02 Jun - 00:14:39 10° N 00:18:28 30° ENE 00:22:12 10° ESE visible
02 Jun - 01:57:11 10° WNW 02:00:12 19° WSW 02:03:12 10° SSW visible
02 Jun - 14:40:46 10° S 14:45:59 46° ESE 14:50:50 10° NE daylight
02 Jun - 16:24:07 10° WSW 16:28:11 22° NW 16:32:01 10° N daylight
02 Jun - 23:26:04 10° NNE 23:28:29 15° NE 23:30:51 10° E visible
03 Jun - 01:06:40 10° NW 01:10:45 47° WSW 01:14:49 10° S visible
03 Jun - 13:52:23 10° SSE 13:56:29 22° ESE 14:00:21 10° ENE daylight
03 Jun - 15:33:11 10° SW 15:38:18 43° WNW 15:43:03 10° NNE daylight
04 Jun - 00:16:54 10° NNW 00:21:09 68° ENE 00:25:21 10° SE visible
04 Jun - 14:43:06 10° SSW 14:48:34 89° WNW 14:53:35 10° NNE daylight
04 Jun - 16:29:16 10° WNW 16:31:10 12° NW 16:33:00 10° NNW daylight
04 Jun - 23:27:38 10° N 23:31:22 28° NE 23:35:02 10° ESE visible
05 Jun - 01:09:58 10° WNW 01:13:09 21° WSW 01:16:19 10° SSW visible
05 Jun - 13:53:49 10° S 13:58:56 43° ESE 14:03:43 10° NE daylight
05 Jun - 15:36:56 10° WSW 15:41:05 23° NW 15:45:01 10° N daylight
05 Jun - 22:39:12 10° NNE 22:41:22 14° NE 22:43:31 10° E visible
06 Jun - 00:19:34 10° NW 00:23:41 51° WSW 00:27:47 10° S visible
06 Jun - 13:05:34 10° SSE 13:09:26 20° ESE 13:13:08 10° ENE daylight
06 Jun - 14:46:05 10° SW 14:51:14 45° WNW 14:56:00 10° NNE daylight
06 Jun - 23:29:51 10° NNW 23:34:04 62° ENE 23:38:15 10° SE visible
07 Jun - 13:56:05 10° SSW 14:01:30 86° ESE 14:06:30 10° NNE daylight
07 Jun - 15:41:53 10° WNW 15:44:03 13° NW 15:46:10 10° NNW daylight
07 Jun - 22:40:38 10° N 22:44:16 26° NE 22:47:50 10° ESE visible
08 Jun - 00:22:47 10° WNW 00:26:06 22° WSW 00:29:25 10° SSW visible
08 Jun - 13:06:53 10° S 13:11:54 40° ESE 13:16:35 10° NE daylight
08 Jun - 14:49:45 10° WSW 14:54:01 24° NW 14:58:01 10° N daylight
08 Jun - 21:52:21 10° NNE 21:54:15 13° NE 21:56:08 10° ENE visible
08 Jun - 23:32:27 10° NW 23:36:37 56° WSW 23:40:46 10° SSE visible
